Temperature
9 9 9 9 9 9 9 9 9 9 9 9 9 9 9 9 9 9 9 9 9 9 9 9 9 9 9 9 9 9 9 9 8 8 8 8 8 8 9 8 9 9 9
8 8 9 9 9 9 9 9 8 8 8 8 8 8 8 8 8 8 8 8 8 8 8 8 8 9 8 8 9 9 8 8 8 8 8 7 7 8 8 8 8 8 9
8 8 8 8 8 8 8 8 8 8 8 8 8 8 8 8 8 8 8 8 8 8 8 8 8 8 8 8 8 8 8 8 8 8 7 7 7 7 7 8 8 8 8
8 8 8 8 8 8 8 8 8 8 8 7 7 7 7 7 7 7 8 8 8 8 8 8 8 8 8 8 8 8 8 8 8 8 8 8 7 7 6 7 7 7 8
8 7 8 8 8 8 8 8 8 7 7 7 7 7 7 7 7 7 7 7 7 7 7 7 7 7 7 7 7 7 7 7 7 7 7 7 7 8 7 6 7 7 7
7 7 7 7 7 7 7 7 7 7 7 7 7 7 7 7 7 7 7 7 7 7 7 7 7 7 7 7 7 7 7 7 7 7 7 7 7 7 7 7 7 6 7
7 7 7 7 7 7 7 7 7 7 7 7 7 7 6 6 6 6 7 7 6 7 7 7 7 7 7 7 7 7 6 6 6 7 7 7 7 7 7 7 6 6 6
6 6 7 6 7 7 6 7 6 6 6 6 6 6 6 6 6 6 6 6 6 6 6 6 6 6 6 6 6 6 6 6 6 6 6 6 6 6 6 6 6 6 6
6 6 6 6 6 6 6 6 6 6 6 6 6 6 6 6 6 6 6 6 6 6 6 6 6 6 6 6 6 6 6 6 6 6 6 6 6 6 6 6 6 6 5
6 6 6 6 6 6 6 6 6 6 6 6 6 6 6 6 6 6 6 6 6 5 6 6 6 6 6 6 5 5 5 5 5 5 5 6 6 6 6 6 6 6 5
5 5 5 5 5 5 5 6 6 6 6 6 6 6 6 5 5 5 5 5 5 5 5 5 5 5 5 5 5 5 5 5 5 5 5 5 5 5 5 5 5 5 5
5 5 5 5 5 5 5 5 5 5 5 5 5 5 5 5 5 5 5 5 5 5 5 5 5 5 5 5 5 5 5 5 5 5 5 5 5 5 5 5 5 5 5
4 4 4 4 4 4 5 5 5 5 5 5 5 5 5 5 5 5 5 4 5 5 5 5 5 5 5 5 5 5 5 5 5 5 5 5 5 5 5 4 4 4 4
4 4 4 4 4 4 4 4 4 4 4 4 4 4 4 4 4 4 4 4 4 4 4 4 4 4 4 4 4 4 4 4 4 4 4 4 4 4 4 4 4 4 4
3 3 3 3 3 4 4 4 4 4 4 4 4 4 4 4 4 3 4 4 4 4 4 4 4 4 4 4 4 4 4 4 4 4 4 4 4 4 4 4 4 3 3
3 3 3 3 3 3 3 3 3 3 3 3 3 3 3 3 3 3 3 3 3 3 3 3 3 3 3 3 3 3 3 3 3 3 3 3 3 3 3 3 3 3 3
2 2 2 2 3 3 3 3 3 3 3 3 3 3 3 3 3 3 3 2 3 3 3 3 3 2 3 3 3 3 3 3 3 3 2 2 3 3 3 2 2 2 2
2 2 2 2 2 2 2 2 2 2 3 3 3 3 2 2 2 2 2 2 2 2 2 2 2 2 2 2 2 2 2 2 2 2 2 2 2 2 2 2 2 2 2
1 1 1 1 1 2 2 2 2 2 2 2 2 2 2 2 2 2 1 1 1 1 1 1 1 1 2 2 1 1 1 1 1 1 1 1 1 1 1 1 1 1 1
1 1 1 1 1 1 1 1 1 1 1 1 1 1 1 1 1 1 1 1 1 1 1 1 1 1 1 1 1 1 1 1 1 1 1 0 1 1 0 1 1 1 1
0 0 0 0 0 0 0 0 0 1 1 1 1 0 0 0 0 0 0 0 0 0 0 0 0 0 0 0 0 0 0 0 0 0 0 0 0 0 -0 -0 -0 0 -0
-1 -0 -0 -1 -0 -0 -0 -0 -0 -0 -0 -0 -0 -0 -0 -0 -0 -0 -0 -0 -0 -0 -0 -0 -0 -0 -0 -0 -0 -0 -0 -0 -0 -0 -0 -0 -0 -1 -1 -1 -1 -1 -1
-1 -1 -1 -1 -1 -1 -1 -1 -1 -1 -1 -1 -1 -1 -1 -1 -1 -1 -1 -1 -1 -1 -1 -1 -1 -1 -1 -1 -1 -1 -1 -1 -1 -1 -1 -1 -1 -1 -1 -1 -1 -2 -2
-2 -2 -2 -2 -2 -2 -2 -2 -2 -1 -2 -2 -2 -2 -2 -2 -2 -2 -2 -2 -2 -2 -2 -2 -2 -2 -2 -2 -2 -2 -2 -2 -2 -2 -2 -2 -2 -2 -2 -2 -2 -2 -2
-3 -3 -3 -3 -2 -2 -2 -2 -2 -2 -2 -2 -2 -2 -2 -2 -2 -2 -2 -3 -2 -2 -2 -2 -2 -2 -2 -2 -2 -2 -2 -2 -2 -2 -2 -2 -2 -3 -3 -3 -3 -3 -3
-3 -3 -3 -3 -3 -3 -3 -3 -3 -3 -3 -3 -3 -3 -3 -3 -3 -3 -3 -3 -3 -3 -3 -3 -3 -3 -3 -3 -3 -2 -2 -3 -3 -3 -3 -3 -3 -3 -3 -3 -3 -4 -4
Wind_Speed
4 3 2 2 2 2 2 3 3 3 2 2 3 2 2 2 2 2 3 4 5 6 5 4 5 5 4 5 5 5 6 4 5 4 2 1 1 1 1 2 3 4 3
2 2 1 1 1 1 2 2 3 3 3 3 3 2 2 2 2 2 3 4 5 6 5 5 5 5 4 5 6 6 5 3 4 4 3 2 2 2 2 2 3 3 3
2 1 1 1 1 1 2 2 2 3 3 3 2 2 2 1 1 2 3 4 4 5 5 6 6 6 6 6 6 7 7 5 4 4 3 3 4 2 3 4 4 4 3
2 2 1 1 1 1 1 2 2 3 3 4 4 4 3 3 3 3 3 3 4 5 5 5 6 6 5 6 6 6 5 7 6 3 2 2 1 3 3 3 4 4 4
1 1 1 1 1 0 1 1 2 3 4 4 4 5 4 3 2 3 3 4 4 4 4 5 5 5 5 6 6 6 6 6 6 5 3 2 1 2 3 3 4 4 4
1 1 1 1 0 1 0 1 2 2 3 4 4 5 5 4 4 4 4 4 3 4 5 5 6 6 6 6 7 6 7 6 6 6 5 4 3 4 3 3 4 4 4
1 1 1 1 1 0 0 1 1 1 2 4 4 5 5 5 5 5 5 4 4 4 5 5 6 6 6 6 6 6 7 7 7 7 6 5 4 3 3 4 3 3 3
1 1 1 1 1 1 1 1 1 1 2 3 3 4 4 4 4 5 4 5 4 4 5 6 7 7 7 6 6 6 6 6 7 7 7 5 5 4 4 4 4 4 3
1 1 1 1 2 2 1 1 2 2 2 3 3 3 3 3 4 4 4 4 4 4 5 5 6 6 6 7 7 6 7 6 7 7 7 6 5 4 4 4 5 5 5
1 1 1 2 2 2 2 2 2 2 2 2 3 2 3 3 3 3 4 4 4 4 5 5 6 6 6 7 7 6 7 7 7 6 7 7 5 5 4 4 4 5 5
1 2 2 3 3 2 2 2 2 2 1 1 2 2 2 2 3 3 3 4 3 4 5 5 5 6 6 7 7 7 7 8 8 7 7 7 6 5 5 4 4 4 4
1 2 2 3 3 3 3 3 2 2 2 1 2 2 2 2 2 2 3 3 3 4 4 4 5 5 5 6 7 7 7 8 8 7 7 7 6 7 5 5 5 5 5
1 2 2 3 3 4 4 4 3 3 2 1 1 1 1 2 2 2 3 3 3 3 3 4 4 4 5 5 6 7 7 7 8 7 8 8 7 7 6 6 6 5 4
1 1 2 3 3 4 4 4 4 3 2 1 1 1 1 2 2 2 2 2 2 3 3 3 4 4 4 4 5 5 6 6 6 6 7 7 8 8 8 6 7 6 5
1 2 2 3 3 4 4 4 4 3 2 1 1 1 2 2 1 1 1 1 2 2 2 2 2 3 3 3 4 4 5 5 5 5 5 6 6 7 7 6 7 7 6
3 3 3 3 4 4 4 4 4 4 2 2 2 2 2 1 1 1 1 1 1 2 2 2 3 3 3 3 4 4 4 5 5 5 5 5 6 7 8 9 9 9 9
3 3 4 4 4 4 4 4 4 4 3 2 2 2 2 2 2 1 1 2 2 1 2 2 2 3 3 3 5 5 4 5 5 5 5 4 5 7 6 8 8 9 10
4 4 4 4 4 4 4 4 3 3 3 3 2 2 2 2 2 1 2 2 2 1 2 2 2 2 2 3 4 5 4 4 4 5 6 6 6 6 7 6 7 7 8
4 4 4 4 4 4 3 3 3 3 3 3 3 3 2 2 2 2 2 2 2 2 2 2 3 3 3 3 4 4 3 3 4 5 5 6 6 7 8 7 7 6 6
3 3 3 3 3 3 3 2 3 3 3 3 3 3 2 2 2 2 2 2 2 2 2 2 2 3 3 3 5 5 3 4 4 4 4 5 6 7 8 7 7 7 6
3 3 3 3 3 3 2 2 3 3 4 4 3 3 2 2 2 2 2 2 2 2 2 2 2 3 3 3 5 5 3 4 4 4 4 4 6 8 8 8 7 7 6
3 3 2 3 3 3 2 2 3 4 4 3 3 3 3 2 2 2 2 2 2 2 2 2 2 2 2 2 3 4 4 3 3 4 4 4 5 7 8 7 6 7 6
3 3 3 3 4 4 3 2 3 3 3 3 2 3 3 2 2 2 2 2 1 1 1 1 1 2 2 1 2 3 3 3 3 3 3 4 5 6 6 6 6 6 5
4 3 3 3 4 4 4 4 4 3 3 3 3 3 2 2 2 2 2 2 2 1 1 2 2 2 2 2 1 1 2 2 2 1 2 3 3 2 2 3 4 4 4
4 4 3 3 4 5 5 5 4 3 3 3 3 3 3 2 2 2 2 2 2 2 2 2 2 2 2 3 3 3 2 2 1 1 1 1 1 1 1 1 2 2 3
5 5 5 5 5 5 6 6 5 4 3 3 3 3 3 2 2 2 2 3 3 3 3 3 3 2 2 3 3 3 2 2 1 1 1 1 2 2 2 2 2 2 3
Wind_Direction
285 282 268 236 211 199 206 190 186 174 171 181 185 181 187 184 181 187 189 188 186 184 181 175 175 178 179 178 173 159 152 154 154 140 126 104 122 174 187 189 179 170 171
299 285 281 212 188 189 197 190 189 178 181 194 197 203 201 205 195 189 194 191 189 191 191 186 185 182 181 182 177 169 166 164 176 171 163 180 202 209 214 206 202 190 173
277 277 272 251 224 224 217 203 202 191 186 186 180 167 167 172 186 202 205 204 196 193 194 194 192 188 183 189 190 188 182 175 187 201 196 193 205 185 199 209 205 199 188
286 298 291 259 245 240 228 214 205 193 188 184 186 186 194 207 221 215 211 203 202 200 198 195 196 194 193 196 198 198 198 183 184 195 240 252 197 186 178 195 203 201 201
268 280 291 273 239 233 272 240 201 196 189 189 196 201 211 218 216 210 209 203 203 205 206 201 198 199 201 200 201 199 202 198 195 193 194 203 207 220 202 199 192 196 205
253 281 348 17 62 61 211 245 202 193 189 195 201 207 213 212 207 211 209 209 206 210 214 211 204 205 207 204 205 202 205 207 207 203 202 203 203 208 211 213 201 206 200
286 341 7 0 354 311 228 229 201 193 201 205 208 214 216 212 211 213 212 210 209 213 216 215 212 210 212 208 208 207 211 213 213 212 212 215 222 218 216 209 209 221 214
340 340 344 336 328 315 289 268 244 222 209 211 220 226 225 218 220 219 219 215 217 220 217 219 219 214 209 206 207 211 213 214 216 220 218 218 219 212 211 210 201 210 219
323 333 343 343 340 326 295 279 253 240 223 217 220 226 229 227 228 227 223 221 223 225 218 218 217 213 207 204 204 211 212 214 218 221 220 220 218 214 215 215 212 212 221
325 336 342 347 342 333 312 294 271 256 232 220 221 229 230 234 235 224 223 226 225 221 213 212 213 210 205 203 205 213 213 215 218 218 218 219 217 214 212 215 221 227 228
325 339 346 348 347 338 332 314 292 287 269 234 229 234 233 232 233 229 230 230 226 219 215 211 210 209 208 208 210 213 209 214 215 213 214 216 213 210 210 210 213 218 219
344 354 357 357 356 348 340 323 302 288 282 255 232 236 238 225 229 241 240 231 225 223 220 214 209 209 211 211 212 214 212 213 214 213 210 212 207 210 208 207 210 212 212
347 356 360 2 353 346 339 328 315 298 281 270 250 242 241 231 230 240 245 236 226 224 222 218 216 215 214 214 217 216 215 217 218 214 213 210 205 209 209 207 208 209 211
299 339 347 351 347 341 337 330 324 311 294 264 246 246 253 249 248 247 242 240 232 223 221 218 216 216 216 216 216 215 214 215 217 216 216 214 211 213 208 206 208 204 203
300 323 327 331 335 336 335 334 333 326 308 276 257 256 261 256 253 253 250 241 232 223 214 210 209 210 213 217 213 213 214 210 210 213 217 219 216 216 210 206 206 202 204
297 312 317 319 322 324 325 326 327 325 311 292 282 283 275 258 257 264 257 242 235 225 210 206 208 214 218 199 201 210 211 211 212 214 216 216 213 213 211 214 214 210 209
293 299 300 302 308 313 313 313 315 317 306 294 293 291 278 272 269 266 259 250 234 223 226 226 221 227 224 197 201 210 212 212 215 216 216 218 218 215 218 217 215 222 225
295 299 303 304 307 310 310 310 314 314 314 308 304 306 299 292 291 279 272 271 258 242 241 238 233 236 236 203 207 212 219 219 219 222 222 222 222 220 216 217 221 227 229
292 298 303 302 303 308 312 313 319 325 332 329 323 316 299 286 283 275 270 274 267 261 256 248 239 238 239 212 213 216 223 225 227 230 230 227 226 215 207 212 219 226 233
316 314 312 312 312 315 315 313 320 325 324 323 317 313 304 285 273 267 271 281 266 261 260 261 259 252 255 229 218 221 222 227 231 233 233 229 228 216 208 216 219 225 231
334 333 326 325 325 323 318 317 326 324 322 323 320 317 313 305 292 281 276 268 264 257 257 264 270 263 260 231 222 225 226 226 229 233 235 232 221 222 220 226 231 230 229
348 347 344 341 340 340 329 323 326 329 330 331 330 329 327 327 314 300 292 278 262 255 261 265 277 282 270 251 231 231 241 246 234 237 238 232 221 229 231 233 233 227 226
350 348 350 350 352 352 345 333 332 336 339 343 338 336 337 335 325 311 301 297 283 273 278 271 271 290 297 282 249 241 246 256 253 248 237 228 226 233 235 227 222 220 222
350 352 358 355 351 350 349 347 341 339 345 346 342 340 340 340 339 338 323 307 294 282 276 268 271 287 290 287 279 268 259 246 253 244 214 213 209 211 210 213 220 226 227
358 360 2 1 352 352 354 352 349 348 351 350 347 344 342 336 343 349 343 322 315 300 281 270 268 267 279 295 305 296 281 272 262 266 269 250 213 210 212 223 234 231 226
2 3 2 357 353 355 356 354 349 348 352 350 348 344 338 335 336 344 356 13 347 344 327 314 296 298 296 301 305 311 313 300 246 267 229 223 227 227 230 235 239 239 240
Height
1491 1490 1489 1489 1489 1490 1490 1490 1491 1491 1492 1493 1494 1494 1495 1496 1498 1499 1501 1502 1503 1505 1506 1507 1509 1510 1512 1514 1516 1517 1519 1521 1523 1525 1526 1528 1529 1530 1532 1533 1534 1535 1536
1488 1487 1487 1487 1487 1487 1488 1488 1488 1489 1489 1491 1492 1493 1494 1494 1496 1497 1498 1499 1501 1502 1504 1505 1506 1508 1509 1511 1513 1515 1516 1518 1520 1522 1524 1526 1529 1528 1529 1529 1531 1532 1534
1486 1486 1485 1485 1485 1485 1485 1486 1486 1486 1487 1488 1489 1491 1492 1493 1494 1494 1495 1497 1498 1499 1501 1502 1503 1505 1506 1508 1510 1512 1514 1515 1518 1520 1522 1524 1524 1525 1526 1526 1528 1529 1530
1484 1484 1483 1483 1483 1483 1483 1483 1483 1484 1485 1486 1486 1487 1488 1489 1490 1492 1493 1494 1495 1496 1498 1499 1500 1502 1503 1505 1507 1509 1511 1513 1514 1516 1518 1520 1520 1522 1522 1524 1525 1526 1527
1482 1482 1481 1481 1481 1481 1481 1481 1481 1482 1482 1483 1484 1485 1486 1487 1488 1489 1490 1491 1492 1493 1494 1496 1497 1498 1500 1502 1504 1506 1508 1509 1511 1513 1515 1516 1517 1518 1520 1520 1522 1523 1524
1481 1480 1480 1479 1479 1479 1479 1479 1479 1479 1480 1480 1481 1482 1483 1484 1485 1486 1487 1488 1489 1490 1491 1492 1494 1495 1497 1498 1500 1502 1504 1506 1508 1509 1511 1513 1514 1515 1516 1517 1518 1520 1521
1479 1478 1478 1477 1477 1477 1477 1477 1477 1477 1478 1478 1478 1479 1480 1481 1482 1483 1484 1484 1485 1486 1488 1489 1491 1492 1493 1495 1497 1499 1500 1502 1504 1506 1507 1509 1511 1512 1513 1514 1515 1516 1517
1478 1477 1477 1477 1476 1476 1475 1475 1476 1476 1476 1476 1476 1477 1477 1478 1478 1479 1480 1481 1482 1483 1485 1486 1487 1489 1490 1491 1493 1495 1496 1498 1500 1502 1504 1505 1507 1508 1509 1511 1512 1513 1514
1477 1476 1476 1475 1475 1474 1474 1474 1474 1473 1473 1473 1474 1474 1475 1475 1475 1476 1477 1478 1479 1480 1481 1482 1483 1485 1486 1488 1489 1491 1493 1495 1496 1498 1500 1501 1502 1504 1505 1507 1509 1510 1510
1476 1476 1475 1474 1474 1473 1473 1472 1472 1471 1471 1471 1472 1472 1472 1472 1472 1473 1474 1475 1475 1476 1477 1478 1480 1481 1482 1484 1485 1487 1489 1491 1492 1494 1495 1497 1498 1499 1501 1503 1504 1506 1507
1476 1475 1475 1474 1473 1472 1471 1471 1470 1470 1469 1469 1469 1470 1470 1470 1470 1470 1471 1471 1472 1473 1474 1475 1476 1477 1478 1480 1481 1483 1484 1486 1487 1489 1491 1492 1494 1495 1496 1498 1499 1501 1502
1475 1474 1474 1473 1472 1471 1470 1469 1469 1468 1468 1467 1467 1467 1467 1467 1467 1467 1468 1468 1469 1470 1470 1471 1472 1473 1474 1476 1477 1478 1480 1481 1483 1485 1486 1488 1489 1490 1492 1493 1495 1496 1497
1474 1474 1473 1472 1471 1470 1469 1468 1467 1467 1466 1465 1465 1465 1465 1465 1465 1465 1465 1465 1466 1466 1467 1468 1468 1470 1471 1472 1473 1474 1476 1477 1479 1480 1481 1483 1484 1486 1487 1489 1490 1491 1492
1473 1472 1472 1471 1470 1469 1468 1467 1466 1465 1464 1463 1463 1463 1462 1462 1462 1462 1462 1462 1463 1463 1464 1464 1465 1466 1467 1468 1469 1470 1471 1473 1474 1475 1477 1478 1480 1481 1483 1484 1485 1486 1487
1471 1471 1470 1470 1468 1467 1466 1465 1464 1463 1462 1461 1460 1460 1460 1460 1460 1459 1459 1459 1460 1460 1460 1461 1461 1462 1463 1464 1465 1466 1467 1468 1469 1471 1472 1474 1475 1477 1478 1479 1480 1482 1483
1470 1469 1468 1467 1466 1465 1464 1463 1462 1461 1460 1459 1458 1458 1457 1457 1457 1457 1456 1456 1456 1457 1457 1457 1458 1458 1459 1460 1461 1462 1463 1464 1465 1466 1467 1469 1470 1472 1473 1475 1476 1477 1478
1468 1467 1466 1465 1464 1463 1462 1461 1460 1459 1458 1457 1456 1455 1454 1454 1454 1454 1453 1453 1453 1453 1453 1454 1455 1455 1456 1457 1458 1459 1459 1460 1461 1462 1463 1464 1465 1467 1468 1469 1470 1471 1472
1466 1464 1463 1462 1462 1461 1460 1459 1458 1457 1456 1455 1454 1453 1452 1451 1451 1451 1450 1450 1450 1450 1450 1451 1451 1452 1452 1453 1454 1455 1455 1456 1456 1458 1459 1460 1461 1462 1463 1464 1465 1465 1467
1463 1462 1461 1460 1459 1459 1458 1456 1455 1454 1453 1452 1451 1450 1449 1449 1448 1448 1448 1448 1447 1447 1447 1448 1448 1448 1449 1449 1450 1451 1451 1452 1452 1453 1454 1455 1456 1457 1459 1460 1460 1461 1462
1461 1460 1459 1458 1457 1456 1455 1454 1452 1451 1450 1449 1448 1447 1447 1446 1446 1445 1445 1445 1445 1445 1445 1445 1445 1445 1445 1446 1446 1447 1447 1448 1448 1449 1450 1451 1452 1453 1453 1455 1455 1455 1456
1459 1458 1457 1456 1455 1454 1453 1452 1450 1449 1448 1447 1446 1445 1444 1444 1443 1443 1442 1442 1442 1442 1442 1442 1442 1442 1442 1442 1443 1443 1443 1444 1444 1444 1445 1446 1447 1447 1448 1450 1450 1451 1452
1457 1457 1456 1455 1453 1452 1451 1450 1448 1447 1446 1445 1443 1443 1442 1441 1441 1440 1439 1439 1439 1439 1438 1438 1438 1439 1439 1439 1439 1440 1440 1440 1440 1440 1441 1441 1442 1443 1443 1444 1445 1446 1446
1456 1455 1454 1453 1452 1451 1449 1448 1446 1445 1444 1443 1441 1441 1440 1439 1438 1438 1437 1436 1436 1436 1435 1435 1435 1435 1436 1436 1436 1436 1436 1437 1437 1437 1437 1437 1437 1438 1438 1439 1440 1441 1441
1455 1454 1453 1451 1450 1449 1448 1446 1445 1443 1442 1441 1440 1439 1438 1437 1436 1435 1435 1434 1434 1433 1433 1433 1432 1432 1432 1432 1432 1432 1433 1433 1433 1433 1433 1433 1433 1433 1434 1434 1435 1435 1436
1454 1453 1452 1450 1449 1448 1446 1445 1443 1442 1441 1440 1438 1437 1436 1435 1434 1433 1433 1432 1431 1431 1431 1430 1430 1430 1429 1430 1430 1429 1429 1429 1429 1429 1429 1429 1429 1429 1430 1430 1431 1431 1432
1453 1452 1451 1449 1448 1446 1445 1443 1442 1441 1440 1438 1437 1436 1434 1433 1432 1432 1431 1430 1429 1429 1429 1428 1428 1428 1428 1427 1427 1427 1427 1427 1427 1427 1426 1426 1426 1426 1427 1427 1427 1427 1427